OEJN Airport Information

Runway Information
Runway 16C Length 10825 ft width 197 ft
Elevation 26 ft Threshold 0 ft Heading 160
Runway 34C Length 10825 ft Width 197 ft
Elevation 26 ft Threshold 0 ft Heading 340
Runway 16L Length 13123 ft width 148 ft
Elevation 30 ft Threshold 0 ft Heading 160
Runway 34R Length 13123 ft Width 148 ft
Elevation 48 ft Threshold 0 ft Heading 340
Runway 16R Length 12467 ft width 197 ft
Elevation 13 ft Threshold 0 ft Heading 160
Runway 34L Length 12467 ft Width 197 ft
Elevation 13 ft Threshold 0 ft Heading 340
Airport Frequencies
Type APP Name JEDDAH APP Frequency 119.1 MHZ
Type ATIS Name ATIS Frequency 126.2 MHZ
Type CLD Name JEDDAH CLN Frequency 121.8 MHZ
Type GND Name GND Frequency 121.6 MHZ
Type TWR Name JEDDAH TWR Frequency 118.2 MHZ
Airport Navaids
Type VORTAC Name King Abdulaziz Frequency 114900 KHZ
Airport Weather Information & NOTAM
ADDS - METARS form results

(0132 UTC 19 August 2018)
 
METAR text: OEJN 190100Z 34004KT 9999 FEW040 30/24 Q1000 NOSIG
Conditions at: OEJN (JEDDAH/KING ABDU, SA) observed 0100 UTC 19 August 2018
Temperature: 30.0°C (86°F)
Dewpoint: 24.0°C (75°F) [RH = 70%]
Pressure (altimeter): 29.53 inches Hg (1000.0 mb)
Winds: from the NNW (340 degrees) at 5 MPH (4 knots; 2.1 m/s)
Visibility: 6 or more miles (10+ km)
Ceiling: at least 12,000 feet AGL
Clouds: few clouds at 4000 feet AGL
Weather: no significant weather observed at this time